Terminal Aerodrome Forecast
Issued by NWS Pittsburgh, PA

Current Version | Previous Version | Graphics & Text | Print | Product List | Glossary On
Versions: 1 2 3 4 5 6 7 8 9 10 11 12 13 14 15 16 17 18 19 20 21 22 23 24 25 26 27 28 29 30 31 32
000
FTUS41 KPBZ 161300 AAA
TAFPIT
TAF AMD
KPIT 161307Z 1613/1718 31006KT P6SM SCT015
      TEMPO 1613/1615 BKN015
     FM161500 33005KT P6SM BKN025
     FM161800 32005KT P6SM BKN050
     FM162100 33003KT P6SM SKC
     FM171000 00000KT 2SM BR FEW250=

USA.gov is the U.S. government's official web portal to all federal, state and local government web resources and services.